Simultaneous Nadir Overpasses (SNOs) Predictions

Prediction of SNOs near US between AQUA and NPP Satellite Orbit:

Table of predicted SNOs near US for the next 10.0 days since TLE Epoch: 12/28/2012
Index Date (AQUA) Time (AQUA) AQUA Lat,Lon Date (NPP) Time (NPP) NPP Lat,Lon Distance(km) Time Diff (sec)
1 12/31/2012 06:32:44 38.88, -67.69 12/31/2012 06:30:32 39.21, -69.68 175.44 132
2 12/31/2012 08:08:32 49.90, -88.47 12/31/2012 08:08:49 50.36, -90.78 172.42 17
3 12/31/2012 09:47:25 49.91,-113.19 12/31/2012 09:50:17 50.47,-116.11 216.86 172
4 01/02/2013 19:06:40 50.00, -92.69 01/02/2013 18:59:04 49.69, -94.36 124.74 456
5 01/02/2013 20:45:33 50.00,-117.41 01/02/2013 20:40:32 49.58,-119.69 169.98 301




NCC Satellite Simultaneous Nadir Overpasses (SNOs) Prediction Service
